TimeCST,TemperatureF,Dew PointF,Humidity,Sea Level PressureIn,VisibilityMPH,Wind Direction,Wind SpeedMPH,Gust SpeedMPH,PrecipitationIn,Events,Conditions,WindDirDegrees,DateUTC
12:15 AM,52.2,48.7,88,30.12,10.0,Calm,Calm,-,N/A,,Scattered Clouds,0,2013-11-15 06:15:00
12:55 AM,52.0,48.4,88,30.11,10.0,NNW,3.5,-,N/A,,Scattered Clouds,330,2013-11-15 06:55:00
1:15 AM,52.0,49.1,90,30.09,10.0,Calm,Calm,-,N/A,,Clear,0,2013-11-15 07:15:00
1:35 AM,52.3,49.1,89,30.09,10.0,Calm,Calm,-,N/A,,Scattered Clouds,0,2013-11-15 07:35:00
1:55 AM,52.7,48.7,86,30.09,10.0,Calm,Calm,-,N/A,,Scattered Clouds,0,2013-11-15 07:55:00
2:15 AM,53.1,49.1,86,30.09,10.0,ENE,3.5,-,N/A,,Clear,70,2013-11-15 08:15:00
2:35 AM,53.4,49.6,87,30.09,10.0,Calm,Calm,-,N/A,,Mostly Cloudy,0,2013-11-15 08:35:00
2:55 AM,54.7,50.4,85,30.08,10.0,NE,3.5,-,N/A,,Overcast,50,2013-11-15 08:55:00
3:15 AM,55.6,50.4,83,30.07,10.0,NNE,4.6,-,N/A,,Overcast,30,2013-11-15 09:15:00
3:35 AM,55.8,50.9,84,30.06,10.0,Calm,Calm,-,N/A,,Overcast,0,2013-11-15 09:35:00
3:55 AM,55.9,50.9,83,30.05,10.0,ENE,4.6,-,N/A,,Mostly Cloudy,60,2013-11-15 09:55:00
4:15 AM,55.2,50.9,85,30.06,10.0,NE,4.6,-,N/A,,Scattered Clouds,40,2013-11-15 10:15:00
4:35 AM,55.4,51.3,86,30.05,10.0,ENE,4.6,-,N/A,,Mostly Cloudy,70,2013-11-15 10:35:00
4:55 AM,56.1,51.1,83,30.05,10.0,ENE,6.9,-,N/A,,Overcast,60,2013-11-15 10:55:00
5:15 AM,56.3,51.8,85,30.06,10.0,NE,5.8,-,N/A,,Overcast,50,2013-11-15 11:15:00
5:35 AM,56.7,52.0,84,30.05,10.0,ENE,4.6,-,N/A,,Overcast,60,2013-11-15 11:35:00
5:55 AM,56.8,52.7,86,30.06,10.0,NE,3.5,-,N/A,,Overcast,50,2013-11-15 11:55:00
6:15 AM,57.2,52.7,85,30.06,10.0,NE,4.6,-,N/A,,Overcast,50,2013-11-15 12:15:00
6:35 AM,57.2,52.9,85,30.05,10.0,ENE,4.6,-,N/A,,Mostly Cloudy,70,2013-11-15 12:35:00
6:55 AM,57.2,53.2,87,30.06,10.0,North,3.5,-,N/A,,Scattered Clouds,10,2013-11-15 12:55:00
7:15 AM,57.4,53.6,87,30.06,10.0,East,5.8,-,N/A,,Mostly Cloudy,90,2013-11-15 13:15:00
7:35 AM,58.1,54.0,86,30.07,10.0,ENE,3.5,-,N/A,,Mostly Cloudy,70,2013-11-15 13:35:00
7:55 AM,58.3,54.0,86,30.07,10.0,ENE,4.6,-,N/A,,Overcast,70,2013-11-15 13:55:00
8:15 AM,58.5,54.1,86,30.07,10.0,NE,4.6,-,N/A,,Overcast,50,2013-11-15 14:15:00
8:35 AM,59.4,54.7,84,30.08,10.0,Calm,Calm,-,N/A,,Overcast,0,2013-11-15 14:35:00
8:55 AM,60.1,55.2,84,30.08,10.0,NE,4.6,-,N/A,,Mostly Cloudy,50,2013-11-15 14:55:00
9:15 AM,63.3,56.5,78,30.09,10.0,NE,3.5,-,N/A,,Clear,50,2013-11-15 15:15:00
9:35 AM,65.7,57.7,76,30.09,10.0,ENE,4.6,-,N/A,,Clear,60,2013-11-15 15:35:00
9:55 AM,66.2,57.9,75,30.08,10.0,East,5.8,-,N/A,,Clear,80,2013-11-15 15:55:00
10:15 AM,66.4,58.8,77,30.08,10.0,NE,4.6,-,N/A,,Scattered Clouds,50,2013-11-15 16:15:00
10:35 AM,67.1,59.0,75,30.08,10.0,East,4.6,-,N/A,,Mostly Cloudy,90,2013-11-15 16:35:00
10:55 AM,67.5,59.4,75,30.07,10.0,ESE,3.5,-,N/A,,Scattered Clouds,110,2013-11-15 16:55:00
11:15 AM,70.0,60.1,71,30.05,10.0,East,3.5,-,N/A,,Clear,80,2013-11-15 17:15:00
11:35 AM,71.6,60.8,69,30.04,10.0,Calm,Calm,-,N/A,,Clear,0,2013-11-15 17:35:00
11:55 AM,73.0,61.2,66,30.02,10.0,SE,4.6,-,N/A,,Clear,130,2013-11-15 17:55:00
12:15 PM,74.1,61.2,64,30.01,10.0,ESE,5.8,-,N/A,,Clear,110,2013-11-15 18:15:00
12:35 PM,75.7,60.8,60,30.00,10.0,ESE,4.6,-,N/A,,Clear,120,2013-11-15 18:35:00
12:55 PM,75.6,60.1,59,29.99,10.0,East,3.5,-,N/A,,Clear,90,2013-11-15 18:55:00
1:15 PM,76.5,58.6,54,29.98,10.0,East,3.5,-,N/A,,Clear,80,2013-11-15 19:15:00
1:35 PM,77.2,58.8,53,29.98,10.0,ESE,3.5,-,N/A,,Clear,110,2013-11-15 19:35:00
1:55 PM,77.2,58.3,52,29.97,10.0,Calm,Calm,-,N/A,,Clear,0,2013-11-15 19:55:00
2:15 PM,77.9,58.5,51,29.96,10.0,East,4.6,-,N/A,,Clear,80,2013-11-15 20:15:00
2:35 PM,78.3,58.1,50,29.96,10.0,ENE,4.6,-,N/A,,Clear,70,2013-11-15 20:35:00
2:55 PM,78.3,58.1,50,29.96,10.0,Calm,Calm,-,N/A,,Clear,0,2013-11-15 20:55:00
3:15 PM,77.5,57.7,50,29.96,10.0,SSW,3.5,-,N/A,,Clear,200,2013-11-15 21:15:00
3:35 PM,77.5,57.7,50,29.96,10.0,South,3.5,-,N/A,,Clear,180,2013-11-15 21:35:00
3:55 PM,77.2,57.6,51,29.96,10.0,Calm,Calm,-,N/A,,Clear,0,2013-11-15 21:55:00
4:15 PM,76.6,57.4,51,29.95,10.0,Calm,Calm,-,N/A,,Clear,0,2013-11-15 22:15:00
4:35 PM,75.6,58.8,56,29.96,10.0,South,3.5,-,N/A,,Clear,190,2013-11-15 22:35:00
4:55 PM,73.6,59.0,60,29.96,10.0,SSW,3.5,-,N/A,,Clear,200,2013-11-15 22:55:00
5:15 PM,72.0,58.8,63,29.95,10.0,Calm,Calm,-,N/A,,Clear,0,2013-11-15 23:15:00
5:35 PM,70.0,59.0,68,29.96,10.0,Calm,Calm,-,N/A,,Clear,0,2013-11-15 23:35:00
5:55 PM,65.8,59.4,80,29.96,10.0,Calm,Calm,-,N/A,,Clear,0,2013-11-15 23:55:00
6:15 PM,66.2,59.2,78,29.97,10.0,Calm,Calm,-,N/A,,Clear,0,2013-11-16 00:15:00
6:35 PM,64.9,59.4,82,29.97,10.0,SE,3.5,-,N/A,,Clear,140,2013-11-16 00:35:00
6:55 PM,64.4,59.5,84,29.97,10.0,Calm,Calm,-,N/A,,Clear,0,2013-11-16 00:55:00
7:15 PM,63.0,61.0,93,29.98,7.0,Calm,Calm,-,N/A,,Clear,0,2013-11-16 01:15:00
7:35 PM,64.2,63.1,96,29.98,7.0,Calm,Calm,-,N/A,,Clear,0,2013-11-16 01:35:00
7:55 PM,63.1,62.4,97,29.98,3.0,SE,3.5,-,N/A,,Clear,140,2013-11-16 01:55:00
8:15 PM,63.1,62.6,98,29.98,3.0,ESE,3.5,-,N/A,,Clear,120,2013-11-16 02:15:00
8:35 PM,64.6,64.2,99,29.98,3.0,ESE,3.5,-,N/A,,Clear,120,2013-11-16 02:35:00
8:55 PM,63.1,62.8,99,29.98,1.2,Calm,Calm,-,N/A,,Mostly Cloudy,0,2013-11-16 02:55:00
9:15 PM,63.7,63.5,99,29.98,0.2,SE,3.5,-,N/A,Fog,Fog,140,2013-11-16 03:15:00
9:35 PM,64.4,64.0,99,30.00,0.2,SE,3.5,-,N/A,Fog,Fog,140,2013-11-16 03:35:00
9:55 PM,63.9,63.7,99,30.00,0.2,Calm,Calm,-,N/A,Fog,Fog,0,2013-11-16 03:55:00
10:15 PM,63.9,63.7,99,30.01,0.2,Calm,Calm,-,N/A,Fog,Fog,0,2013-11-16 04:15:00
10:35 PM,64.0,63.9,99,30.01,0.2,Calm,Calm,-,N/A,Fog,Fog,0,2013-11-16 04:35:00
10:55 PM,63.9,63.7,99,30.01,0.2,Calm,Calm,-,N/A,Fog,Fog,0,2013-11-16 04:55:00
11:15 PM,63.7,63.7,100,30.00,0.2,Calm,Calm,-,N/A,Fog,Fog,0,2013-11-16 05:15:00
11:35 PM,63.5,63.5,100,30.00,0.2,Calm,Calm,-,N/A,Fog,Fog,0,2013-11-16 05:35:00
11:55 PM,63.7,63.7,100,30.00,0.2,Calm,Calm,-,N/A,Fog,Fog,0,2013-11-16 05:55:00